User: anonymous
Location: Radomski Observatory
(40.2854°N, 79.5145°W)
Time: 08:21:44
(UTC-04:00)
Language:

Cosmos 1072 Rocket - Orbit

View from above orbital plane
View from above orbital plane
View from above satellite
View from above satellite

Ground track
Ground track

The orbit data is extracted from the following two-line orbital elements,

1 11239U 79003B   14208.02014692  .00000002  00000-0 -14368-4 0  3379
2 11239 082.9408 152.4813 0042319 102.9780 304.8147 13.75726575782630
Epoch (UTC): 27 July 2014 00:29:00
Eccentricity: 0.0042319
inclination: 82.9408°
perigee height: 948 km
apogee height: 1010 km
right ascension of ascending node: 152.4813°
argument of perigee: 102.9780°
revolutions per day: 13.75726575
mean anomaly at epoch: 304.8147°
orbit number at epoch: 78263

The dashed part of the orbit path shows where the satellite is in the earth's shadow,  

DLR